contact:dominique.lefevre@mio.osupytheas.fr, maurice.libes@osupytheas.fr, didier.mallarino@osupytheas.fr
Project:EMSO http://www.emso-fr.org/EMSO-France
Depth: 2436.0 m
Title:EMSO Ligure Ouest : Data MII capteur AQUADOPP
Date,Latitude,Longitude,X_East,Y_North,Z_Up,Amplitude_X,Amplitude_Y,Amplitude_Z,Batterie,SoundSpeed,Heading,Pitch,Roll,Pressure,TIS,Speed,Direction
, degrees North, degrees East, m.s-1, m.s-1,m.s-1, 1, 1, 1, Volt, m.s-1, degree, degree, degree, dbar, degree_C, m.s-1, degree
2021-05-01T00:04:03,42.805,6.029,0.061,-0.032,0.048,100.0,106.0,99.0,13.3,1505.2,327.9,-0.7,1.8,2469.719,13.28,0.068,117.7
2021-05-01T00:07:03,42.805,6.029,0.046,-0.029,0.043,100.0,104.0,100.0,13.3,1505.2,327.4,-0.7,1.8,2469.682,13.28,0.054,122.2
2021-05-01T00:10:03,42.805,6.029,0.02,-0.008,0.027,101.0,105.0,100.0,13.3,1505.2,325.6,-0.8,1.8,2469.702,13.28,0.021,111.8
2021-05-01T00:13:03,42.805,6.029,0.029,-0.031,0.023,100.0,106.0,100.0,13.3,1505.2,327.5,-0.7,1.8,2469.696,13.28,0.042,136.9
2021-05-01T00:16:03,42.805,6.029,0.028,-0.021,0.002,101.0,105.0,99.0,13.4,1505.2,326.5,-0.7,1.8,2469.622,13.28,0.035,126.9
2021-05-01T00:19:03,42.805,6.029,0.019,-0.023,0.028,101.0,105.0,99.0,13.3,1505.2,327.9,-0.7,1.8,2469.682,13.28,0.029,140.4
2021-05-01T00:22:03,42.805,6.029,0.014,-0.035,-0.023,102.0,103.0,100.0,13.4,1505.2,327.5,-0.8,1.8,2469.623,13.28,0.037,158.2
2021-05-01T00:25:03,42.805,6.029,0.036,-0.029,-0.003,101.0,105.0,100.0,13.3,1505.2,324.1,-0.7,1.8,2469.662,13.28,0.046,128.9
2021-05-01T00:28:03,42.805,6.029,0.04,-0.016,0.04,100.0,105.0,99.0,13.3,1505.2,327.0,-0.7,1.8,2469.644,13.28,0.043,111.8
2021-05-01T00:31:03,42.805,6.029,0.039,-0.015,0.019,99.0,103.0,101.0,13.4,1505.2,327.9,-0.8,1.8,2469.617,13.28,0.041,111.0
2021-05-01T00:34:03,42.805,6.029,0.056,-0.019,0.044,102.0,105.0,99.0,13.4,1505.2,325.5,-0.8,1.8,2469.64,13.28,0.059,108.7
2021-05-01T00:37:03,42.805,6.029,0.049,-0.018,0.042,101.0,105.0,100.0,13.4,1505.2,327.8,-0.7,1.8,2469.661,13.28,0.052,110.2
2021-05-01T00:40:03,42.805,6.029,0.056,-0.016,0.021,101.0,106.0,100.0,13.4,1505.2,326.5,-0.8,1.8,2469.623,13.28,0.058,105.9
2021-05-01T00:43:03,42.805,6.029,0.019,-0.008,0.029,100.0,103.0,100.0,13.3,1505.2,327.9,-0.8,1.8,2469.635,13.28,0.02,112.8
2021-05-01T00:46:03,42.805,6.029,0.056,-0.01,0.054,99.0,104.0,101.0,13.4,1505.2,327.7,-0.7,1.8,2469.634,13.28,0.056,100.1
2021-05-01T00:49:03,42.805,6.029,0.034,-0.026,0.016,101.0,105.0,100.0,13.4,1505.2,327.1,-0.8,1.8,2469.6,13.28,0.042,127.4
2021-05-01T00:52:03,42.805,6.029,0.039,-0.034,0.022,100.0,104.0,100.0,13.3,1505.2,325.9,-0.8,1.8,2469.618,13.28,0.051,131.1
2021-05-01T00:55:03,42.805,6.029,0.034,0.003,0.054,100.0,104.0,101.0,13.4,1505.2,323.8,-0.7,1.8,2469.614,13.28,0.034,85.0
2021-05-01T00:58:03,42.805,6.029,0.04,-0.022,0.029,100.0,104.0,100.0,13.4,1505.2,324.2,-0.8,1.8,2469.662,13.28,0.045,118.8
2021-05-01T01:04:03,42.805,6.029,0.006,-0.007,0.024,101.0,104.0,100.0,13.4,1505.2,325.3,-0.7,1.8,2469.619,13.28,0.009,139.4
2021-05-01T01:07:03,42.805,6.029,0.004,-0.018,0.047,102.0,103.0,100.0,13.3,1505.2,325.1,-0.7,1.8,2469.661,13.28,0.018,167.5
2021-05-01T01:10:03,42.805,6.029,0.029,-0.02,0.023,100.0,105.0,100.0,13.3,1505.2,326.7,-0.8,1.8,2469.603,13.28,0.035,124.6
2021-05-01T01:13:03,42.805,6.029,0.041,-0.028,0.021,100.0,104.0,100.0,13.4,1505.2,329.0,-0.7,1.9,2469.614,13.28,0.049,124.3
2021-05-01T01:16:03,42.805,6.029,0.034,0.004,0.046,102.0,102.0,100.0,13.4,1505.2,325.7,-0.7,1.8,2469.561,13.28,0.034,83.3
2021-05-01T01:19:03,42.805,6.029,0.028,-0.032,0.004,101.0,105.0,99.0,13.4,1505.2,327.9,-0.8,1.8,2469.594,13.28,0.042,138.8
2021-05-01T01:22:03,42.805,6.029,0.05,-0.017,0.038,102.0,105.0,99.0,13.4,1505.2,327.1,-0.8,1.8,2469.613,13.28,0.052,108.8
2021-05-01T01:25:03,42.805,6.029,0.024,-0.045,0.024,100.0,104.0,100.0,13.4,1505.2,324.4,-0.7,1.9,2469.626,13.28,0.051,151.9
2021-05-01T01:28:03,42.805,6.029,0.038,-0.014,0.028,100.0,104.0,100.0,13.3,1505.2,328.5,-0.7,1.8,2469.58,13.28,0.04,110.2
2021-05-01T01:31:03,42.805,6.029,0.027,-0.015,0.031,102.0,104.0,99.0,13.4,1505.2,326.4,-0.7,1.8,2469.59,13.28,0.03,119.1
2021-05-01T01:34:03,42.805,6.029,0.037,-0.026,0.007,101.0,105.0,100.0,13.4,1505.2,324.1,-0.7,1.8,2469.554,13.28,0.045,125.1
2021-05-01T01:37:03,42.805,6.029,0.057,-0.057,0.007,102.0,102.0,101.0,13.4,1505.2,327.9,-0.8,1.8,2469.531,13.28,0.08,135.0
2021-05-01T01:40:03,42.805,6.029,0.051,-0.008,0.037,100.0,105.0,99.0,13.4,1505.2,326.2,-0.7,1.8,2469.585,13.28,0.051,98.9
2021-05-01T01:43:03,42.805,6.029,0.064,-0.028,0.038,102.0,105.0,99.0,13.4,1505.2,329.0,-0.7,1.9,2469.536,13.28,0.069,113.6
2021-05-01T01:46:03,42.805,6.029,0.033,-0.005,0.025,101.0,105.0,99.0,13.4,1505.2,326.5,-0.7,1.8,2469.531,13.28,0.033,98.6
2021-05-01T01:49:03,42.805,6.029,0.049,-0.008,0.036,100.0,105.0,100.0,13.3,1505.2,324.3,-0.8,1.8,2469.567,13.28,0.049,99.3
2021-05-01T01:52:03,42.805,6.029,0.023,-0.038,0.022,100.0,105.0,99.0,13.4,1505.2,328.0,-0.7,1.8,2469.551,13.28,0.044,148.8
2021-05-01T01:55:03,42.805,6.029,0.048,-0.02,0.043,100.0,105.0,101.0,13.4,1505.2,328.6,-0.7,1.9,2469.594,13.28,0.052,112.6
2021-05-01T01:58:03,42.805,6.029,0.07,-0.025,0.051,101.0,106.0,99.0,13.3,1505.2,325.2,-0.8,1.8,2469.577,13.28,0.074,109.6
2021-05-01T02:04:03,42.805,6.029,0.013,-0.025,-0.001,101.0,106.0,100.0,13.4,1505.2,327.6,-0.8,1.8,2469.539,13.28,0.028,152.5
2021-05-01T02:07:03,42.805,6.029,0.015,-0.023,-0.021,99.0,103.0,101.0,13.4,1505.2,327.4,-0.7,1.8,2469.547,13.28,0.027,146.9
2021-05-01T02:10:03,42.805,6.029,0.052,-0.026,0.012,99.0,105.0,101.0,13.3,1505.2,324.3,-0.8,1.8,2469.558,13.28,0.058,116.6
2021-05-01T02:13:03,42.805,6.029,0.014,-0.036,0.0,100.0,105.0,99.0,13.4,1505.2,325.1,-0.7,1.8,2469.569,13.28,0.038,158.8
2021-05-01T02:16:03,42.805,6.029,0.026,-0.025,0.019,99.0,106.0,101.0,13.4,1505.2,328.6,-0.7,1.9,2469.512,13.28,0.036,133.9
2021-05-01T02:19:03,42.805,6.029,0.025,-0.025,-0.003,102.0,104.0,100.0,13.4,1505.2,328.4,-0.7,1.8,2469.49,13.28,0.035,135.0
2021-05-01T02:22:03,42.805,6.029,0.059,-0.029,0.033,99.0,105.0,101.0,13.3,1505.2,327.5,-0.7,1.8,2469.495,13.28,0.065,116.2
2021-05-01T02:25:03,42.805,6.029,0.037,-0.016,0.006,101.0,104.0,99.0,13.3,1505.2,323.9,-0.8,1.8,2469.538,13.28,0.04,113.4
2021-05-01T02:28:03,42.805,6.029,0.034,-0.023,0.032,100.0,105.0,101.0,13.4,1505.2,328.5,-0.7,1.8,2469.54,13.28,0.041,124.1
2021-05-01T02:31:03,42.805,6.029,0.063,-0.009,0.043,101.0,103.0,99.0,13.4,1505.2,327.2,-0.7,1.8,2469.497,13.28,0.063,98.1
2021-05-01T02:34:03,42.805,6.029,0.032,-0.016,0.053,101.0,101.0,100.0,13.4,1505.2,326.1,-0.7,1.8,2469.468,13.28,0.035,116.6
2021-05-01T02:37:03,42.805,6.029,0.027,-0.007,0.024,101.0,105.0,100.0,13.4,1505.2,327.3,-0.8,1.8,2469.442,13.28,0.027,104.5
2021-05-01T02:40:03,42.805,6.029,0.051,-0.005,0.026,100.0,105.0,100.0,13.4,1505.2,323.8,-0.8,1.9,2469.485,13.28,0.051,95.6
2021-05-01T02:43:03,42.805,6.029,0.035,-0.02,0.039,100.0,105.0,100.0,13.4,1505.2,324.3,-0.8,1.9,2469.465,13.28,0.04,119.7
2021-05-01T02:46:03,42.805,6.029,0.043,-0.025,0.02,100.0,104.0,100.0,13.4,1505.2,324.3,-0.7,1.8,2469.501,13.28,0.049,120.2
2021-05-01T02:49:03,42.805,6.029,0.034,-0.007,0.017,100.0,106.0,102.0,13.4,1505.2,328.9,-0.8,1.8,2469.496,13.28,0.034,101.6
2021-05-01T02:52:03,42.805,6.029,0.055,-0.018,0.056,100.0,103.0,100.0,13.3,1505.2,325.1,-0.7,1.8,2469.501,13.28,0.057,108.1
2021-05-01T02:55:03,42.805,6.029,0.01,-0.021,0.004,100.0,103.0,100.0,13.4,1505.2,327.5,-0.8,1.8,2469.479,13.28,0.023,154.5
2021-05-01T02:58:03,42.805,6.029,0.064,-0.023,0.044,99.0,104.0,100.0,13.3,1505.2,327.7,-0.8,1.9,2469.437,13.28,0.068,109.8
2021-05-01T03:04:03,42.805,6.029,0.096,-0.004,0.05,101.0,106.0,101.0,13.4,1505.1,326.3,-0.7,1.8,2469.472,13.27,0.096,92.4
2021-05-01T03:07:03,42.805,6.029,0.027,-0.017,0.048,101.0,103.0,100.0,13.4,1505.2,325.9,-0.7,1.8,2469.448,13.28,0.031,122.2
2021-05-01T03:10:03,42.805,6.029,0.069,-0.046,0.021,101.0,105.0,99.0,13.3,1505.2,324.2,-0.7,1.9,2469.42,13.28,0.082,123.7
2021-05-01T03:13:03,42.805,6.029,0.049,-0.02,0.027,103.0,104.0,99.0,13.3,1505.2,327.5,-0.7,1.8,2469.424,13.28,0.052,112.2
2021-05-01T03:16:03,42.805,6.029,0.048,-0.02,0.038,100.0,106.0,99.0,13.4,1505.2,325.6,-0.7,1.8,2469.402,13.28,0.052,112.6
2021-05-01T03:19:03,42.805,6.029,0.006,-0.006,0.004,100.0,106.0,99.0,13.4,1505.2,325.2,-0.7,1.8,2469.419,13.28,0.008,135.0
2021-05-01T03:22:03,42.805,6.029,0.02,-0.043,0.005,100.0,105.0,100.0,13.4,1505.2,329.0,-0.8,1.8,2469.394,13.28,0.047,155.1
2021-05-01T03:25:03,42.805,6.029,0.067,-0.01,0.075,98.0,106.0,101.0,13.4,1505.2,326.4,-0.7,1.8,2469.435,13.28,0.067,98.5
2021-05-01T03:28:03,42.805,6.029,0.043,-0.026,0.024,100.0,105.0,100.0,13.4,1505.2,325.6,-0.7,1.8,2469.355,13.28,0.05,121.2
2021-05-01T03:31:03,42.805,6.029,0.001,-0.023,-0.015,100.0,104.0,100.0,13.4,1505.2,326.0,-0.8,1.9,2469.424,13.28,0.023,177.5
2021-05-01T03:34:03,42.805,6.029,0.065,-0.017,-0.007,99.0,105.0,101.0,13.3,1505.2,325.2,-0.7,1.8,2469.392,13.28,0.067,104.7
2021-05-01T03:37:03,42.805,6.029,0.038,-0.023,0.042,102.0,103.0,100.0,13.4,1505.2,323.7,-0.8,1.8,2469.365,13.28,0.044,121.2
2021-05-01T03:40:03,42.805,6.029,0.032,-0.002,0.055,100.0,104.0,101.0,13.3,1505.2,324.8,-0.8,1.8,2469.37,13.28,0.032,93.6
2021-05-01T03:43:03,42.805,6.029,0.061,-0.015,0.035,101.0,105.0,99.0,13.4,1505.2,324.6,-0.7,1.8,2469.362,13.28,0.062,103.8
2021-05-01T03:46:03,42.805,6.029,0.015,-0.012,0.013,100.0,105.0,100.0,13.4,1505.2,327.5,-0.8,1.8,2469.373,13.28,0.019,128.7
2021-05-01T03:49:03,42.805,6.029,0.055,-0.019,0.068,101.0,106.0,100.0,13.4,1505.2,328.2,-0.8,1.8,2469.353,13.28,0.058,109.1
2021-05-01T03:52:03,42.805,6.029,0.063,-0.025,0.056,99.0,105.0,100.0,13.4,1505.2,327.3,-0.8,1.8,2469.351,13.28,0.067,111.6
2021-05-01T03:55:03,42.805,6.029,0.032,-0.042,-0.015,100.0,105.0,100.0,13.3,1505.2,327.5,-0.8,1.8,2469.356,13.28,0.052,142.7
2021-05-01T03:58:03,42.805,6.029,0.05,0.009,0.069,101.0,106.0,101.0,13.4,1505.2,324.2,-0.8,1.8,2469.346,13.28,0.05,79.8
2021-05-01T04:04:03,42.805,6.029,0.035,-0.016,0.025,100.0,104.0,101.0,13.4,1505.1,326.7,-0.8,1.8,2469.348,13.27,0.038,114.6
2021-05-01T04:07:03,42.805,6.029,-0.006,-0.019,0.018,102.0,105.0,99.0,13.3,1505.2,329.4,-0.8,1.8,2469.329,13.28,0.019,197.5
2021-05-01T04:10:03,42.805,6.029,0.053,0.001,0.07,101.0,105.0,100.0,13.4,1505.2,325.9,-0.8,1.8,2469.358,13.28,0.053,88.9
2021-05-01T04:13:03,42.805,6.029,0.049,-0.011,0.038,102.0,104.0,101.0,13.4,1505.2,325.5,-0.8,1.8,2469.31,13.28,0.05,102.7
2021-05-01T04:16:03,42.805,6.029,0.04,-0.002,0.015,100.0,104.0,101.0,13.4,1505.2,327.6,-0.8,1.8,2469.285,13.28,0.04,92.9
2021-05-01T04:19:03,42.805,6.029,0.044,-0.015,0.012,99.0,107.0,100.0,13.4,1505.2,327.6,-0.8,1.8,2469.315,13.28,0.046,108.8
2021-05-01T04:22:03,42.805,6.029,0.034,-0.003,0.026,102.0,102.0,100.0,13.4,1505.2,326.3,-0.7,1.8,2469.279,13.28,0.034,95.0
2021-05-01T04:25:03,42.805,6.029,0.062,-0.017,0.027,101.0,106.0,100.0,13.3,1505.2,326.3,-0.7,1.8,2469.348,13.28,0.064,105.3
2021-05-01T04:28:03,42.805,6.029,0.055,-0.02,0.032,100.0,106.0,100.0,13.4,1505.2,327.7,-0.8,1.8,2469.312,13.28,0.058,110.0
2021-05-01T04:31:03,42.805,6.029,0.034,-0.037,-0.001,99.0,106.0,101.0,13.4,1505.2,327.5,-0.7,1.8,2469.3,13.28,0.05,137.4
2021-05-01T04:34:03,42.805,6.029,0.073,-0.002,0.056,101.0,105.0,99.0,13.3,1505.2,326.8,-0.7,1.8,2469.315,13.28,0.073,91.6
2021-05-01T04:37:03,42.805,6.029,0.027,-0.019,0.003,100.0,105.0,100.0,13.4,1505.2,327.8,-0.7,1.8,2469.292,13.28,0.033,125.1
2021-05-01T04:40:03,42.805,6.029,0.001,-0.007,-0.013,100.0,106.0,100.0,13.3,1505.2,325.7,-0.8,1.8,2469.305,13.28,0.007,171.9
2021-05-01T04:43:03,42.805,6.029,0.072,-0.047,-0.013,99.0,106.0,100.0,13.3,1505.2,324.4,-0.8,1.8,2469.28,13.28,0.085,123.1
2021-05-01T04:46:03,42.805,6.029,0.006,-0.022,0.015,101.0,105.0,100.0,13.3,1505.2,325.9,-0.7,1.8,2469.28,13.28,0.022,164.7
2021-05-01T04:49:03,42.805,6.029,0.068,0.0,0.024,102.0,108.0,99.0,13.3,1505.2,323.8,-0.8,1.8,2469.269,13.28,0.067,90.0
2021-05-01T04:52:03,42.805,6.029,0.04,-0.023,0.007,101.0,106.0,100.0,13.3,1505.2,324.8,-0.8,1.8,2469.295,13.28,0.046,119.9
2021-05-01T04:55:03,42.805,6.029,0.025,-0.039,0.006,101.0,106.0,101.0,13.4,1505.2,326.9,-0.7,1.8,2469.277,13.28,0.046,147.3
2021-05-01T04:58:03,42.805,6.029,0.07,0.002,0.059,99.0,106.0,101.0,13.4,1505.2,324.8,-0.8,1.8,2469.286,13.28,0.07,88.4
2021-05-01T05:04:03,42.805,6.029,0.041,-0.016,0.025,101.0,105.0,101.0,13.3,1505.2,327.7,-0.8,1.8,2469.266,13.28,0.044,111.3
2021-05-01T05:07:03,42.805,6.029,0.046,-0.021,0.022,101.0,105.0,101.0,13.4,1505.2,325.5,-0.7,1.8,2469.276,13.28,0.05,114.5
2021-05-01T05:10:03,42.805,6.029,0.013,0.0,-0.001,100.0,106.0,101.0,13.4,1505.2,324.6,-0.8,1.8,2469.306,13.28,0.013,90.0
2021-05-01T05:13:03,42.805,6.029,0.01,-0.008,-0.009,101.0,107.0,100.0,13.3,1505.2,324.6,-0.8,1.8,2469.24,13.28,0.012,128.7
2021-05-01T05:16:03,42.805,6.029,0.052,0.001,0.053,102.0,105.0,99.0,13.4,1505.2,327.1,-0.8,1.8,2469.25,13.28,0.052,88.9
2021-05-01T05:19:03,42.805,6.029,0.05,-0.027,0.019,101.0,105.0,101.0,13.4,1505.2,327.6,-0.7,1.8,2469.217,13.28,0.056,118.4
2021-05-01T05:22:03,42.805,6.029,0.062,-0.018,0.039,101.0,107.0,100.0,13.3,1505.2,326.7,-0.8,1.8,2469.233,13.28,0.064,106.2
2021-05-01T05:25:03,42.805,6.029,0.065,0.011,0.028,101.0,104.0,102.0,13.3,1505.2,327.6,-0.8,1.8,2469.223,13.28,0.065,80.4
2021-05-01T05:28:03,42.805,6.029,0.07,-0.002,0.067,101.0,108.0,100.0,13.4,1505.2,327.0,-0.7,1.8,2469.237,13.28,0.07,91.6
2021-05-01T05:31:03,42.805,6.029,0.033,0.007,0.023,100.0,106.0,101.0,13.3,1505.2,326.7,-0.8,1.8,2469.189,13.28,0.033,78.0
2021-05-01T05:34:03,42.805,6.029,0.077,-0.022,0.045,101.0,104.0,102.0,13.3,1505.2,326.3,-0.7,1.8,2469.197,13.28,0.08,105.9
2021-05-01T05:37:03,42.805,6.029,0.012,0.004,-0.008,101.0,105.0,101.0,13.4,1505.2,327.5,-0.8,1.8,2469.236,13.28,0.012,71.6
2021-05-01T05:40:03,42.805,6.029,0.077,-0.013,0.036,100.0,108.0,100.0,13.4,1505.2,327.2,-0.7,1.8,2469.229,13.28,0.078,99.6
2021-05-01T05:43:03,42.805,6.029,0.043,-0.01,0.011,101.0,104.0,101.0,13.4,1505.2,328.0,-0.7,1.8,2469.2,13.28,0.044,103.1
2021-05-01T05:46:03,42.805,6.029,0.036,-0.002,0.038,101.0,107.0,100.0,13.4,1505.2,325.8,-0.7,1.8,2469.2,13.28,0.036,93.2
2021-05-01T05:49:03,42.805,6.029,0.075,-0.018,0.037,101.0,106.0,100.0,13.3,1505.2,327.8,-0.8,1.8,2469.231,13.28,0.077,103.5
2021-05-01T05:52:03,42.805,6.029,0.084,-0.006,0.083,100.0,106.0,100.0,13.4,1505.2,327.5,-0.7,1.9,2469.249,13.28,0.084,94.1
2021-05-01T05:55:03,42.805,6.029,0.052,-0.03,0.002,103.0,103.0,100.0,13.4,1505.2,329.1,-0.7,1.8,2469.177,13.28,0.06,120.0
2021-05-01T05:58:03,42.805,6.029,0.038,-0.016,0.035,102.0,106.0,99.0,13.4,1505.2,328.0,-0.8,1.9,2469.201,13.28,0.041,112.8
2021-05-01T06:04:03,42.805,6.029,0.05,-0.003,0.018,100.0,106.0,101.0,13.3,1505.2,325.2,-0.8,1.8,2469.223,13.28,0.05,93.4
2021-05-01T06:07:03,42.805,6.029,0.053,-0.002,0.026,101.0,105.0,101.0,13.4,1505.2,325.5,-0.8,1.8,2469.228,13.28,0.053,92.2
2021-05-01T06:10:03,42.805,6.029,0.038,-0.018,0.007,101.0,104.0,100.0,13.4,1505.2,327.9,-0.7,1.8,2469.223,13.28,0.042,115.3
2021-05-01T06:13:03,42.805,6.029,0.024,-0.005,0.044,102.0,103.0,102.0,13.4,1505.2,327.3,-0.8,1.8,2469.201,13.28,0.024,101.8
2021-05-01T06:16:03,42.805,6.029,0.057,-0.01,0.028,100.0,104.0,101.0,13.3,1505.2,324.2,-0.8,1.8,2469.213,13.28,0.057,99.9
2021-05-01T06:19:03,42.805,6.029,0.027,0.027,0.078,101.0,108.0,101.0,13.4,1505.2,329.4,-0.8,1.9,2469.269,13.28,0.038,45.0
2021-05-01T06:22:03,42.805,6.029,0.036,-0.025,0.028,101.0,107.0,100.0,13.4,1505.2,329.1,-0.8,1.9,2469.242,13.28,0.043,124.8
2021-05-01T06:25:03,42.805,6.029,0.045,0.012,0.04,102.0,104.0,101.0,13.4,1505.2,326.5,-0.8,1.8,2469.242,13.28,0.046,75.1
2021-05-01T06:28:03,42.805,6.029,0.067,0.007,0.029,102.0,104.0,100.0,13.4,1505.2,325.0,-0.8,1.8,2469.276,13.28,0.067,84.0
2021-05-01T06:31:03,42.805,6.029,0.052,-0.003,0.026,101.0,107.0,101.0,13.4,1505.2,328.4,-0.8,1.8,2469.275,13.28,0.052,93.3
2021-05-01T06:34:03,42.805,6.029,0.051,-0.001,0.047,101.0,105.0,101.0,13.3,1505.2,327.3,-0.7,1.8,2469.299,13.28,0.051,91.1
2021-05-01T06:37:03,42.805,6.029,0.055,-0.004,0.041,101.0,106.0,100.0,13.4,1505.2,324.7,-0.7,1.8,2469.269,13.28,0.055,94.2
2021-05-01T06:40:03,42.805,6.029,0.047,-0.02,0.028,101.0,106.0,100.0,13.3,1505.2,325.5,-0.8,1.8,2469.299,13.28,0.051,113.0
2021-05-01T06:43:03,42.805,6.029,0.082,-0.018,0.068,103.0,104.0,101.0,13.4,1505.2,328.7,-0.7,1.8,2469.279,13.28,0.083,102.4
2021-05-01T06:46:03,42.805,6.029,0.032,0.01,0.038,100.0,106.0,100.0,13.3,1505.2,327.1,-0.7,1.8,2469.284,13.28,0.033,72.6
2021-05-01T06:49:03,42.805,6.029,0.044,-0.014,0.012,101.0,105.0,100.0,13.3,1505.2,327.4,-0.7,1.9,2469.274,13.28,0.046,107.6
2021-05-01T06:52:03,42.805,6.029,0.014,-0.025,-0.003,100.0,105.0,101.0,13.4,1505.2,328.1,-0.8,1.8,2469.28,13.28,0.028,150.7
2021-05-01T06:55:03,42.805,6.029,0.035,-0.031,-0.007,101.0,104.0,100.0,13.4,1505.2,325.6,-0.7,1.8,2469.3,13.28,0.046,131.5
2021-05-01T06:58:03,42.805,6.029,0.07,-0.011,0.052,101.0,105.0,100.0,13.4,1505.2,324.3,-0.8,1.8,2469.261,13.28,0.07,98.9
2021-05-01T07:04:03,42.805,6.029,0.072,-0.008,0.043,101.0,105.0,101.0,13.3,1505.1,327.9,-0.8,1.8,2469.287,13.27,0.072,96.3
2021-05-01T07:07:03,42.805,6.029,0.091,-0.015,0.047,100.0,106.0,100.0,13.3,1505.2,325.7,-0.7,1.8,2469.339,13.28,0.092,99.4
2021-05-01T07:10:03,42.805,6.029,0.05,-0.024,0.011,101.0,105.0,99.0,13.3,1505.2,327.3,-0.7,1.8,2469.294,13.28,0.055,115.6
2021-05-01T07:13:03,42.805,6.029,0.069,-0.036,0.001,102.0,102.0,100.0,13.4,1505.2,326.4,-0.7,1.8,2469.305,13.28,0.077,117.6
2021-05-01T07:16:03,42.805,6.029,0.06,-0.012,0.052,101.0,106.0,100.0,13.3,1505.2,324.4,-0.8,1.8,2469.342,13.28,0.061,101.3
2021-05-01T07:19:03,42.805,6.029,0.06,-0.003,0.07,100.0,106.0,99.0,13.3,1505.2,326.0,-0.8,1.9,2469.295,13.28,0.06,92.9
2021-05-01T07:22:03,42.805,6.029,0.071,-0.032,0.03,99.0,106.0,101.0,13.4,1505.2,327.7,-0.7,1.8,2469.295,13.28,0.077,114.3
2021-05-01T07:25:03,42.805,6.029,0.027,-0.026,-0.024,100.0,106.0,101.0,13.4,1505.2,325.8,-0.7,1.8,2469.284,13.28,0.037,133.9
2021-05-01T07:28:03,42.805,6.029,0.052,-0.018,0.023,101.0,107.0,100.0,13.3,1505.2,324.3,-0.7,1.8,2469.334,13.28,0.055,109.1
2021-05-01T07:31:03,42.805,6.029,0.036,-0.003,0.019,102.0,104.0,100.0,13.3,1505.2,326.3,-0.7,1.8,2469.269,13.28,0.036,94.8
2021-05-01T07:34:03,42.805,6.029,0.056,-0.027,0.029,99.0,105.0,100.0,13.3,1505.2,326.6,-0.7,1.9,2469.313,13.28,0.062,115.7
2021-05-01T07:37:03,42.805,6.029,0.077,-0.007,0.05,100.0,105.0,100.0,13.4,1505.2,326.1,-0.7,1.8,2469.287,13.28,0.077,95.2
2021-05-01T07:40:03,42.805,6.029,0.057,-0.019,0.051,100.0,104.0,101.0,13.4,1505.2,324.2,-0.8,1.8,2469.272,13.28,0.06,108.4
2021-05-01T07:49:03,42.805,6.029,0.055,-0.032,0.043,101.0,105.0,100.0,13.4,1505.1,327.6,-0.8,1.8,2469.319,13.27,0.063,120.2
2021-05-01T07:52:03,42.805,6.029,0.034,-0.013,0.03,101.0,105.0,100.0,13.3,1505.2,329.1,-0.7,1.8,2469.317,13.28,0.036,110.9
2021-05-01T07:55:03,42.805,6.029,0.066,-0.048,0.031,100.0,105.0,101.0,13.4,1505.2,328.8,-0.8,1.8,2469.286,13.28,0.081,126.0
2021-05-01T07:58:03,42.805,6.029,0.064,-0.008,0.036,99.0,104.0,101.0,13.3,1505.2,326.5,-0.7,1.8,2469.306,13.28,0.064,97.1
2021-05-01T08:04:03,42.805,6.029,0.028,-0.014,0.013,101.0,104.0,101.0,13.4,1505.1,326.6,-0.7,1.9,2469.343,13.27,0.031,116.6
2021-05-01T08:07:03,42.805,6.029,0.033,-0.02,0.005,101.0,105.0,101.0,13.4,1505.2,325.2,-0.8,1.8,2469.308,13.28,0.038,121.2
2021-05-01T08:10:03,42.805,6.029,0.047,-0.015,0.014,100.0,106.0,101.0,13.4,1505.2,325.8,-0.7,1.8,2469.316,13.28,0.049,107.7
2021-05-01T08:13:03,42.805,6.029,0.035,-0.006,0.054,100.0,104.0,101.0,13.4,1505.2,328.7,-0.8,1.8,2469.314,13.28,0.035,99.7
2021-05-01T08:16:03,42.805,6.029,0.049,-0.018,0.029,100.0,104.0,100.0,13.4,1505.2,327.0,-0.8,1.8,2469.288,13.28,0.052,110.2
2021-05-01T08:19:03,42.805,6.029,0.083,-0.032,0.029,99.0,104.0,101.0,13.4,1505.2,327.9,-0.7,1.8,2469.273,13.28,0.088,111.1
2021-05-01T08:22:03,42.805,6.029,0.067,-0.039,0.036,100.0,106.0,100.0,13.4,1505.2,325.5,-0.7,1.8,2469.281,13.28,0.077,120.2
2021-05-01T08:25:03,42.805,6.029,0.046,-0.038,-0.008,100.0,103.0,101.0,13.4,1505.2,325.2,-0.8,1.8,2469.317,13.28,0.059,129.6
2021-05-01T08:28:03,42.805,6.029,0.076,-0.014,0.039,101.0,103.0,100.0,13.4,1505.2,325.9,-0.7,1.9,2469.316,13.28,0.077,100.4
2021-05-01T08:31:03,42.805,6.029,0.037,-0.034,0.031,101.0,103.0,101.0,13.3,1505.2,326.3,-0.7,1.8,2469.219,13.28,0.05,132.6
2021-05-01T08:34:03,42.805,6.029,0.099,-0.034,0.034,102.0,102.0,101.0,13.4,1505.2,327.9,-0.8,1.8,2469.298,13.28,0.104,109.0
2021-05-01T08:37:03,42.805,6.029,0.067,-0.017,0.012,101.0,105.0,101.0,13.4,1505.2,326.7,-0.7,1.8,2469.289,13.28,0.069,104.2
2021-05-01T08:40:03,42.805,6.029,0.067,-0.016,0.052,103.0,104.0,100.0,13.3,1505.2,327.4,-0.7,1.8,2469.28,13.28,0.068,103.4
2021-05-01T08:43:03,42.805,6.029,0.028,-0.018,0.025,100.0,106.0,101.0,13.4,1505.2,325.6,-0.8,1.8,2469.275,13.28,0.033,122.7
2021-05-01T08:46:03,42.805,6.029,0.045,-0.001,0.032,100.0,105.0,100.0,13.4,1505.2,325.9,-0.7,1.9,2469.279,13.28,0.045,91.3
2021-05-01T08:49:03,42.805,6.029,0.067,-0.026,0.028,102.0,104.0,99.0,13.4,1505.2,327.3,-0.8,1.8,2469.277,13.28,0.071,111.2
2021-05-01T08:52:03,42.805,6.029,0.041,-0.022,0.022,99.0,106.0,101.0,13.3,1505.2,327.1,-0.8,1.8,2469.314,13.28,0.046,118.2
2021-05-01T08:55:03,42.805,6.029,0.053,-0.003,0.055,101.0,104.0,100.0,13.4,1505.2,327.2,-0.7,1.8,2469.242,13.28,0.053,93.2
2021-05-01T08:58:03,42.805,6.029,0.059,0.0,0.045,101.0,106.0,101.0,13.4,1505.2,323.8,-0.7,1.8,2469.243,13.28,0.058,90.0
2021-05-01T09:04:03,42.805,6.029,0.052,-0.014,0.054,102.0,106.0,100.0,13.3,1505.1,327.9,-0.8,1.8,2469.294,13.27,0.053,105.1
2021-05-01T09:07:03,42.805,6.029,0.05,-0.037,0.012,102.0,105.0,100.0,13.4,1505.2,327.2,-0.8,1.8,2469.256,13.28,0.062,126.5
2021-05-01T09:10:03,42.805,6.029,0.066,-0.035,0.022,100.0,105.0,100.0,13.4,1505.2,326.6,-0.8,1.8,2469.249,13.28,0.074,117.9
2021-05-01T09:13:03,42.805,6.029,0.049,-0.02,0.019,101.0,105.0,100.0,13.4,1505.2,327.8,-0.8,1.8,2469.281,13.28,0.052,112.2
2021-05-01T09:16:03,42.805,6.029,0.05,-0.03,0.015,100.0,104.0,100.0,13.4,1505.2,327.2,-0.8,1.8,2469.245,13.28,0.058,121.0
2021-05-01T09:19:03,42.805,6.029,0.071,-0.053,0.025,100.0,103.0,100.0,13.3,1505.2,327.2,-0.7,1.8,2469.234,13.28,0.088,126.7
2021-05-01T09:22:03,42.805,6.029,0.074,-0.052,0.034,100.0,105.0,100.0,13.4,1505.2,327.7,-0.8,1.8,2469.244,13.28,0.09,125.1
2021-05-01T09:25:03,42.805,6.029,0.072,-0.027,0.023,101.0,103.0,100.0,13.4,1505.2,327.6,-0.8,1.8,2469.259,13.28,0.076,110.6
2021-05-01T09:28:03,42.805,6.029,0.063,-0.008,0.059,101.0,103.0,99.0,13.4,1505.2,325.3,-0.7,1.8,2469.257,13.28,0.063,97.2
2021-05-01T09:31:03,42.805,6.029,0.045,-0.015,0.025,100.0,104.0,100.0,13.4,1505.2,324.8,-0.7,1.9,2469.25,13.28,0.047,108.4
2021-05-01T09:34:03,42.805,6.029,0.048,-0.001,0.066,99.0,105.0,101.0,13.3,1505.2,325.9,-0.8,1.9,2469.21,13.28,0.048,91.2
2021-05-01T09:37:03,42.805,6.029,0.055,-0.036,0.01,101.0,102.0,100.0,13.4,1505.2,326.8,-0.7,1.8,2469.214,13.28,0.065,123.2
2021-05-01T09:40:03,42.805,6.029,0.058,-0.014,0.068,100.0,105.0,100.0,13.3,1505.2,325.7,-0.7,1.8,2469.262,13.28,0.059,103.6
2021-05-01T09:43:03,42.805,6.029,0.049,-0.032,0.01,100.0,104.0,101.0,13.4,1505.2,326.1,-0.8,1.8,2469.212,13.28,0.058,123.2
2021-05-01T09:46:03,42.805,6.029,0.033,-0.012,0.04,101.0,103.0,100.0,13.4,1505.2,326.9,-0.7,1.8,2469.209,13.28,0.035,110.0
2021-05-01T09:49:03,42.805,6.029,0.055,-0.046,0.03,101.0,103.0,100.0,13.3,1505.2,327.2,-0.8,1.8,2469.213,13.28,0.071,129.9
2021-05-01T09:52:03,42.805,6.029,0.053,-0.025,0.0,103.0,104.0,100.0,13.4,1505.2,327.5,-0.8,1.8,2469.198,13.28,0.058,115.3
2021-05-01T09:55:03,42.805,6.029,0.038,-0.032,0.004,102.0,103.0,100.0,13.4,1505.2,327.9,-0.7,1.8,2469.184,13.28,0.049,130.1
2021-05-01T09:58:03,42.805,6.029,0.061,-0.024,0.085,102.0,103.0,99.0,13.4,1505.2,327.6,-0.7,1.8,2469.236,13.28,0.065,111.5
2021-05-01T10:01:03,42.805,6.029,0.05,-0.02,0.012,100.0,104.0,101.0,13.3,1505.2,325.3,-0.8,1.8,2469.191,13.28,0.053,111.8
2021-05-01T10:04:03,42.805,6.029,0.008,-0.013,0.008,101.0,105.0,100.0,13.4,1505.2,324.3,-0.7,1.8,2469.194,13.28,0.015,148.4
2021-05-01T10:07:03,42.805,6.029,0.084,-0.008,0.054,100.0,105.0,100.0,13.4,1505.2,324.8,-0.7,1.8,2469.243,13.28,0.084,95.4